TimeEST,TemperatureF,Dew PointF,Humidity,Sea Level PressureIn,VisibilityMPH,Wind Direction,Wind SpeedMPH,Gust SpeedMPH,PrecipitationIn,Events,Conditions,WindDirDegrees,DateUTC
12:51 AM,30.9,21.9,69,29.68,10.0,NW,9.2,-,N/A,,Overcast,320,2013-03-03 05:51:00
1:51 AM,30.9,21.9,69,29.68,10.0,NW,9.2,-,N/A,,Overcast,310,2013-03-03 06:51:00
2:51 AM,30.0,21.9,72,29.67,10.0,NW,9.2,-,N/A,,Overcast,310,2013-03-03 07:51:00
3:51 AM,30.0,21.0,69,29.66,10.0,NW,12.7,-,N/A,,Overcast,320,2013-03-03 08:51:00
4:51 AM,28.9,19.9,69,29.67,10.0,NW,13.8,-,N/A,,Overcast,320,2013-03-03 09:51:00
5:51 AM,28.9,19.9,69,29.67,10.0,NW,10.4,-,N/A,,Overcast,320,2013-03-03 10:51:00
6:51 AM,28.0,19.9,72,29.68,10.0,NW,12.7,-,N/A,,Overcast,310,2013-03-03 11:51:00
7:51 AM,28.9,19.0,67,29.69,10.0,NW,9.2,-,N/A,,Overcast,320,2013-03-03 12:51:00
8:51 AM,30.0,19.0,64,29.68,10.0,NW,12.7,-,N/A,,Overcast,320,2013-03-03 13:51:00
9:51 AM,30.2,19.4,64,29.66,10.0,NNW,10.4,17.3,N/A,Snow,Light Snow,340,2013-03-03 14:51:00
10:51 AM,34.0,19.9,56,29.66,10.0,NW,12.7,-,0.00,,Mostly Cloudy,310,2013-03-03 15:51:00
11:26 AM,33.8,19.4,56,29.65,10.0,NNW,11.5,-,N/A,,Mostly Cloudy,330,2013-03-03 16:26:00
11:51 AM,35.1,19.9,54,29.65,10.0,North,9.2,-,N/A,,Mostly Cloudy,350,2013-03-03 16:51:00
12:51 PM,36.0,19.9,52,29.63,10.0,NW,10.4,-,N/A,,Overcast,310,2013-03-03 17:51:00
1:51 PM,36.0,24.1,62,29.63,10.0,NW,13.8,-,N/A,,Mostly Cloudy,320,2013-03-03 18:51:00
2:18 PM,33.8,24.8,70,29.62,2.5,WNW,15.0,-,0.00,Snow,Light Snow,300,2013-03-03 19:18:00
2:51 PM,34.0,24.1,67,29.62,7.0,West,10.4,-,0.00,,Overcast,280,2013-03-03 19:51:00
3:51 PM,34.0,23.0,64,29.62,10.0,NW,12.7,-,N/A,,Overcast,320,2013-03-03 20:51:00
4:51 PM,33.8,23.0,65,29.63,10.0,NW,10.4,-,N/A,,Overcast,310,2013-03-03 21:51:00
5:51 PM,30.9,24.1,76,29.65,9.0,WNW,8.1,-,0.00,,Overcast,300,2013-03-03 22:51:00
6:51 PM,30.9,24.1,76,29.66,8.0,NNW,9.2,-,0.00,Snow,Light Snow,330,2013-03-03 23:51:00
7:51 PM,30.9,23.0,72,29.66,10.0,NW,10.4,-,0.00,,Overcast,310,2013-03-04 00:51:00
8:51 PM,30.9,21.0,67,29.68,10.0,NW,10.4,-,N/A,,Overcast,310,2013-03-04 01:51:00
9:51 PM,30.0,19.0,64,29.68,10.0,NW,10.4,-,N/A,,Overcast,320,2013-03-04 02:51:00
10:51 PM,28.9,19.0,67,29.69,10.0,NNW,15.0,18.4,N/A,,Overcast,330,2013-03-04 03:51:00
11:51 PM,28.0,18.0,66,29.68,10.0,NNW,13.8,-,N/A,,Overcast,330,2013-03-04 04:51:00